PSLV R/B, 41791

Orbit data source: Space-Track

PSLV R/B, 41791 is space debris in SSO originally from a launch on Mon, 26 Sep 2016 UTC launched from the Sirharikota (SRI). Debris objects in space refer to the collection of defunct objects orbiting the Earth. Examples of debris include non-operational satellites, rocket bodies, and fragments generated from explosions, collisions, or faulty payload assembly.

Loading next visibility...
PSLV R/B details
Identifier
41791, 2016-059J
Orbit
SSO
Last TLE update12 hours ago
Origin
Flag of INISRO (IN / IND)
ManufacturerVSSC/LPSC
MissionSpacecraft
Bus & MotorPS-4, Unknown motor
Mass920 kg wet, 920 kg dry
Launch date (UTC)
2016-09-26 (8 years ago)
Launch vehicleUnknown
Launch site
Sirharikota (SRI)
Object type
Payload
Rocket body
Debris
Shape & HBRCyl + Cyl + 2 Nozzle, 3.238 m
Radar Cross Section6.185 m², Large (>1 m²)

Expand to show TLE details & history

TLE from 12 hours ago
0 PSLV R/B
1 41791U 16059J   25013.51796298  .00000740  00000-0  15175-3 0  9994
2 41791  97.8693  44.6187 0042298 128.7809 231.7184 14.62865172442677
Epoch: 2025-01-13T12:25Z
Definitive object data (Epoch: 2025-01-13T12:25:52.001Z)
Latitude-0.00004°
Longitude104.91417°
Altitude705.524 km
Speed7.493 km/s
True Right ascension02h 58m 28s
True Declination0° 00' 00"
Sunlit
Object was in daylight at TLE epoch
Visualization TLE readout
Latitude27.82851°
Longitude101.21433°
Altitude692.062 km
Speed7.51 km/s
Apparent Right ascension06h 07m 20s
Apparent Declination-13° 24' 58"
Sunlit
Object is in daylight
Visualization observer readout
Local Sidereal Time00:37:24
Azimuth105.066° ESE
Elevation-2.941°
Doppler factor1
Orbital elements
Apogee altitude710.859 km
Perigee altitude651.141 km
Semi-major axis7,059.137 km
Eccentricity0.0042298
Inclination97.8693°
RAAN44.6187°
Arg. of periapsis128.7809°
True anomaly231.33917°
Mean anomaly231.7184°
Eccentric anomaly231.52866°
Mean motion3.65945 °/min
BSTAR0.00015175
Orbital period98.38 mins
Loading maneuver chart data...
Loading historical data...
Loading historical data...
Loading historical data...
Loading historical data...
Loading historical data...
Loading historical data...
Loading historical data...

PSLV R/B Visibility forecast

Observer location: undefined°, undefined

Span
Click to sort rows by Start time (UTC) header in descending order
Start Az.
Max El. time (UTC)
Max El. Az.
Max El.
End time (UTC)
End Az.
8 mins2025-01-14 01:41:00.847Z153.92° SSE2025-01-14 01:45:00.847Z78.361° E41.872°2025-01-14 01:49:00.847Z355.44° N
6 mins2025-01-14 15:17:00.847Z348.312° N2025-01-14 15:19:00.847Z305.728° NW34.602°2025-01-14 15:23:00.847Z218.642° SW
|